KLM129 LEBB-EKCH

Flight info

Callsign KLM129
Flight time N/A
Altitude 36000
Route MAPAX N867 NENEM DCT PEXOD DCT DIDIG DCT USODA DCT ERCUT DCT DITAL UN873 BAZOS DCT BELDI/N0456F370 DCT VICOT DCT DOSUR DCT TALSA P729 TUDLO
Aircraft B739/M-SDE2E3FGHIRWXY/LB1

Departure

Time 2026-04-29 19:18
Airport Bilbao Airport (LEBB)

Arrival

Time N/A
Airport Copenhagen Kastrup Airport (EKCH)
Time Latitude Longitude Altitude Speed Heading
2026-04-29 18:45 43.30462 -2.90740 126 ft 0 kts 27°
2026-04-29 19:08 43.30461 -2.90741 126 ft 2 kts 27°
2026-04-29 19:08 43.30438 -2.90755 121 ft 4 kts 15°
2026-04-29 19:08 43.30412 -2.90760 121 ft 4 kts 351°
2026-04-29 19:09 43.30390 -2.90747 123 ft 3 kts 301°
2026-04-29 19:09 43.30388 -2.90742 123 ft 0 kts 295°
2026-04-29 19:12 43.30388 -2.90743 126 ft 1 kts 295°
2026-04-29 19:12 43.30395 -2.90763 124 ft 7 kts 295°
2026-04-29 19:13 43.30407 -2.90885 126 ft 14 kts 268°
2026-04-29 19:13 43.30350 -2.91004 123 ft 18 kts 212°
2026-04-29 19:13 43.30333 -2.91165 125 ft 21 kts 294°
2026-04-29 19:13 43.30402 -2.91361 126 ft 25 kts 296°
2026-04-29 19:14 43.30486 -2.91583 125 ft 27 kts 300°
2026-04-29 19:14 43.30568 -2.91803 127 ft 25 kts 295°
2026-04-29 19:14 43.30641 -2.92010 125 ft 23 kts 299°
2026-04-29 19:14 43.30717 -2.92199 125 ft 23 kts 298°
2026-04-29 19:15 43.30778 -2.92378 125 ft 15 kts 294°
2026-04-29 19:15 43.30800 -2.92461 124 ft 5 kts 268°
2026-04-29 19:15 43.30799 -2.92466 124 ft 0 kts 259°
2026-04-29 19:16 43.30796 -2.92475 127 ft 3 kts 244°
2026-04-29 19:16 43.30753 -2.92501 125 ft 11 kts 184°
2026-04-29 19:16 43.30656 -2.92466 125 ft 17 kts 159°
2026-04-29 19:17 43.30620 -2.92435 123 ft 6 kts 132°
2026-04-29 19:17 43.30605 -2.92402 126 ft 0 kts 116°
2026-04-29 19:17 43.30602 -2.92393 126 ft 13 kts 115°
2026-04-29 19:17 43.30434 -2.91933 125 ft 93 kts 117°
2026-04-29 19:18 43.30041 -2.90863 127 ft 156 kts 118°
2026-04-29 19:18 43.29692 -2.89898 239 ft 181 kts 116°
2026-04-29 19:18 43.28945 -2.87696 1180 ft 199 kts 115°
2026-04-29 19:18 43.28334 -2.85926 1833 ft 210 kts 116°
2026-04-29 19:19 43.27760 -2.84107 2648 ft 207 kts 115°
2026-04-29 19:19 43.27216 -2.82149 2879 ft 239 kts 114°
2026-04-29 19:19 43.26592 -2.79770 2566 ft 290 kts 112°
2026-04-29 19:19 43.25937 -2.77064 3198 ft 296 kts 111°
2026-04-29 19:20 43.25431 -2.74492 4922 ft 261 kts 108°
2026-04-29 19:20 43.25106 -2.72154 6341 ft 245 kts 103°
2026-04-29 19:20 43.24908 -2.69739 6667 ft 271 kts 97°
2026-04-29 19:20 43.24860 -2.66931 6385 ft 318 kts 92°
2026-04-29 19:21 43.25008 -2.63796 6808 ft 332 kts 86°
2026-04-29 19:21 43.25374 -2.60812 8352 ft 301 kts 79°
2026-04-29 19:21 43.25936 -2.58199 10035 ft 274 kts 72°
2026-04-29 19:21 43.26674 -2.55776 10694 ft 284 kts 67°
2026-04-29 19:22 43.27281 -2.54091 10589 ft 310 kts 65°
2026-04-29 19:22 43.28363 -2.51296 10289 ft 351 kts 62°
2026-04-29 19:22 43.29683 -2.48436 10940 ft 352 kts 54°
2026-04-29 19:22 43.31259 -2.45904 11981 ft 344 kts 46°
2026-04-29 19:23 43.33147 -2.43920 12824 ft 345 kts 24°
2026-04-29 19:23 43.35482 -2.43221 13471 ft 346 kts 356°
2026-04-29 19:23 43.37827 -2.43875 14050 ft 346 kts 334°
2026-04-29 19:23 43.39877 -2.45571 14622 ft 344 kts 315°
2026-04-29 19:24 43.41428 -2.48051 15173 ft 343 kts 301°
2026-04-29 19:24 43.42775 -2.50781 15749 ft 346 kts 300°
2026-04-29 19:24 43.44094 -2.53569 16363 ft 349 kts 299°
2026-04-29 19:24 43.45422 -2.56392 16954 ft 353 kts 299°
2026-04-29 19:25 43.46767 -2.59237 17541 ft 356 kts 299°
2026-04-29 19:25 43.48132 -2.62101 18122 ft 360 kts 299°
2026-04-29 19:25 43.49515 -2.64990 18621 ft 363 kts 299°
2026-04-29 19:25 43.50898 -2.67869 19150 ft 366 kts 299°
2026-04-29 19:26 43.52329 -2.70844 19676 ft 369 kts 299°
2026-04-29 19:26 43.53737 -2.73770 20167 ft 373 kts 299°
2026-04-29 19:26 43.55177 -2.76764 20663 ft 377 kts 299°
2026-04-29 19:26 43.56630 -2.79788 21162 ft 380 kts 299°
2026-04-29 19:27 43.58094 -2.82839 21673 ft 383 kts 299°
2026-04-29 19:27 43.59572 -2.85920 22144 ft 387 kts 299°
2026-04-29 19:27 43.61060 -2.89028 22657 ft 390 kts 300°
2026-04-29 19:27 43.62562 -2.92165 23141 ft 393 kts 300°
2026-04-29 19:28 43.64074 -2.95328 23572 ft 397 kts 300°
2026-04-29 19:28 43.65596 -2.98516 23971 ft 399 kts 300°
2026-04-29 19:28 43.67213 -3.01654 24379 ft 405 kts 309°
2026-04-29 19:28 43.69408 -3.04156 24752 ft 415 kts 328°
2026-04-29 19:29 43.72091 -3.05668 25163 ft 421 kts 345°
2026-04-29 19:29 43.74968 -3.06503 25545 ft 424 kts 348°
2026-04-29 19:29 43.77879 -3.07272 25896 ft 428 kts 348°
2026-04-29 19:29 43.80817 -3.08047 26281 ft 430 kts 348°
2026-04-29 19:30 43.83761 -3.08848 26697 ft 432 kts 347°
2026-04-29 19:30 43.86718 -3.09677 27070 ft 435 kts 347°
2026-04-29 19:30 43.89692 -3.10529 27427 ft 438 kts 347°
2026-04-29 19:30 43.92686 -3.11396 27783 ft 441 kts 347°
2026-04-29 19:31 43.95698 -3.12270 28156 ft 443 kts 347°
2026-04-29 19:31 43.98723 -3.13149 28522 ft 446 kts 347°
2026-04-29 19:31 44.01767 -3.14032 28856 ft 449 kts 347°
2026-04-29 19:31 44.04855 -3.14785 29173 ft 453 kts 354°
2026-04-29 19:32 44.08009 -3.14891 29487 ft 455 kts
2026-04-29 19:32 44.11182 -3.14577 29837 ft 457 kts
2026-04-29 19:32 44.14362 -3.14201 30107 ft 460 kts
2026-04-29 19:32 44.17521 -3.13817 30352 ft 463 kts
2026-04-29 19:33 44.20739 -3.13437 30618 ft 465 kts
2026-04-29 19:33 44.23971 -3.13072 30867 ft 468 kts
2026-04-29 19:33 44.27225 -3.12720 31136 ft 469 kts
2026-04-29 19:33 44.30487 -3.12376 31394 ft 471 kts
2026-04-29 19:34 44.33764 -3.12036 31640 ft 473 kts
2026-04-29 19:34 44.37056 -3.11696 31880 ft 475 kts
2026-04-29 19:34 44.40361 -3.11355 32128 ft 477 kts
2026-04-29 19:34 44.42601 -3.11123 32309 ft 478 kts
2026-04-29 19:35 44.46998 -3.10667 32627 ft 480 kts
2026-04-29 19:35 44.50332 -3.10320 32860 ft 481 kts
2026-04-29 19:35 44.53675 -3.09971 33075 ft 483 kts
2026-04-29 19:35 44.57031 -3.09620 33281 ft 485 kts
2026-04-29 19:36 44.60396 -3.09268 33523 ft 485 kts
2026-04-29 19:36 44.63768 -3.08915 33745 ft 487 kts
2026-04-29 19:36 44.67152 -3.08560 33922 ft 488 kts
2026-04-29 19:36 44.70543 -3.08204 34088 ft 490 kts
2026-04-29 19:37 44.73948 -3.07847 34303 ft 489 kts
2026-04-29 19:37 44.76193 -3.07611 34490 ft 488 kts
2026-04-29 19:37 44.80711 -3.07135 34872 ft 485 kts
2026-04-29 19:38 44.87509 -3.06417 34871 ft 492 kts
2026-04-29 19:38 44.94327 -3.05696 34866 ft 495 kts
2026-04-29 19:39 45.01204 -3.04967 34868 ft 495 kts
2026-04-29 19:39 45.08076 -3.04236 34872 ft 495 kts
2026-04-29 19:40 45.14929 -3.03506 34875 ft 494 kts
2026-04-29 19:40 45.21766 -3.02775 34875 ft 492 kts
2026-04-29 19:41 45.28570 -3.01845 34864 ft 490 kts 12°
2026-04-29 19:41 45.34919 -2.98503 34888 ft 486 kts 31°
2026-04-29 19:42 45.40435 -2.93042 34884 ft 483 kts 39°
2026-04-29 19:42 45.45821 -2.87326 34887 ft 483 kts 38°
2026-04-29 19:43 45.51233 -2.81646 34891 ft 483 kts 38°
2026-04-29 19:43 45.56668 -2.75993 34894 ft 484 kts 38°
2026-04-29 19:44 45.62113 -2.70334 34883 ft 484 kts 38°
2026-04-29 19:44 45.67559 -2.64657 34899 ft 485 kts 38°
2026-04-29 19:45 45.73015 -2.58953 34896 ft 486 kts 38°
2026-04-29 19:45 45.78467 -2.53237 34908 ft 486 kts 38°
2026-04-29 19:46 45.83919 -2.47506 34904 ft 486 kts 38°
2026-04-29 19:46 45.89357 -2.41778 34906 ft 486 kts 38°
2026-04-29 19:47 45.94803 -2.36026 34890 ft 485 kts 38°
2026-04-29 19:47 46.00228 -2.30280 34909 ft 484 kts 38°
2026-04-29 19:48 46.05644 -2.24548 34910 ft 483 kts 37°
2026-04-29 19:48 46.11214 -2.19151 34920 ft 482 kts 34°
2026-04-29 19:49 46.16853 -2.13921 34923 ft 481 kts 34°
2026-04-29 19:49 46.22461 -2.08672 34918 ft 480 kts 35°
2026-04-29 19:50 46.28035 -2.03388 34922 ft 479 kts 35°
2026-04-29 19:50 46.33557 -1.98122 34911 ft 478 kts 35°
2026-04-29 19:51 46.39101 -1.92821 34924 ft 477 kts 35°
2026-04-29 19:51 46.44639 -1.87515 34939 ft 477 kts 35°
2026-04-29 19:52 46.50179 -1.82195 34932 ft 478 kts 35°
2026-04-29 19:52 46.55723 -1.76859 34935 ft 478 kts 35°
2026-04-29 19:53 46.61275 -1.71501 34944 ft 479 kts 35°
2026-04-29 19:53 46.66825 -1.66131 34948 ft 479 kts 35°
2026-04-29 19:54 46.75156 -1.58046 34937 ft 480 kts 35°
2026-04-29 19:54 46.80731 -1.52618 34948 ft 482 kts 35°
2026-04-29 19:55 46.86313 -1.47169 34943 ft 483 kts 35°
2026-04-29 19:55 46.91897 -1.41705 34951 ft 483 kts 35°
2026-04-29 19:56 46.97375 -1.36103 34939 ft 482 kts 42°
2026-04-29 19:56 47.01957 -1.29033 34958 ft 478 kts 51°
2026-04-29 19:57 47.05593 -1.22930 34951 ft 478 kts 51°
2026-04-29 19:57 47.10739 -1.14371 34963 ft 478 kts 51°
2026-04-29 19:58 47.15170 -1.07074 34965 ft 479 kts 50°
2026-04-29 19:58 47.19611 -0.99762 34964 ft 480 kts 50°
2026-04-29 19:59 47.24056 -0.92419 34970 ft 481 kts 51°
2026-04-29 19:59 47.28503 -0.85050 34966 ft 482 kts 51°
2026-04-29 20:00 47.32949 -0.77661 34962 ft 481 kts 50°
2026-04-29 20:00 47.37388 -0.70261 34970 ft 481 kts 50°
2026-04-29 20:01 47.41818 -0.62859 34969 ft 481 kts 50°
2026-04-29 20:01 47.46646 -0.56015 34971 ft 483 kts 38°
2026-04-29 20:02 47.52059 -0.50131 34965 ft 483 kts 37°
2026-04-29 20:02 47.55655 -0.46269 34967 ft 482 kts 37°
2026-04-29 20:03 47.62872 -0.38384 34969 ft 481 kts 37°
2026-04-29 20:03 47.68200 -0.32475 34969 ft 481 kts 38°
2026-04-29 20:04 47.73547 -0.26517 34974 ft 480 kts 38°
2026-04-29 20:04 47.78888 -0.20552 34979 ft 480 kts 38°
2026-04-29 20:05 47.84224 -0.14581 34995 ft 480 kts 38°
2026-04-29 20:05 47.89555 -0.08599 34993 ft 479 kts 38°
2026-04-29 20:06 47.94882 -0.02608 34993 ft 479 kts 38°
2026-04-29 20:06 48.00193 0.03382 35015 ft 478 kts 37°
2026-04-29 20:07 48.05494 0.09377 35010 ft 477 kts 37°
2026-04-29 20:07 48.10780 0.15370 35025 ft 477 kts 37°
2026-04-29 20:08 48.14313 0.19385 35027 ft 476 kts 38°
2026-04-29 20:08 48.21330 0.27380 35023 ft 476 kts 38°
2026-04-29 20:09 48.25705 0.32379 35036 ft 476 kts 37°
2026-04-29 20:09 48.30965 0.38404 35044 ft 476 kts 37°
2026-04-29 20:10 48.36224 0.44444 35030 ft 475 kts 37°
2026-04-29 20:10 48.41471 0.50486 35049 ft 475 kts 37°
2026-04-29 20:11 48.46722 0.56549 35047 ft 475 kts 37°
2026-04-29 20:11 48.51966 0.62620 35061 ft 476 kts 37°
2026-04-29 20:12 48.57221 0.68721 35061 ft 477 kts 37°
2026-04-29 20:12 48.62443 0.74799 35066 ft 477 kts 37°
2026-04-29 20:13 48.67701 0.80937 35076 ft 477 kts 37°
2026-04-29 20:13 48.72951 0.87080 35074 ft 477 kts 37°
2026-04-29 20:14 48.78217 0.93205 35108 ft 479 kts 36°
2026-04-29 20:14 48.83554 0.99332 35104 ft 482 kts 36°
2026-04-29 20:15 48.88907 1.05499 35095 ft 483 kts 36°
2026-04-29 20:15 48.94249 1.11687 35100 ft 483 kts 36°
2026-04-29 20:16 48.99584 1.17886 35105 ft 483 kts 36°
2026-04-29 20:16 49.04849 1.24230 35104 ft 483 kts 40°
2026-04-29 20:17 49.09689 1.31231 35120 ft 481 kts 43°
2026-04-29 20:17 49.14445 1.38314 35090 ft 467 kts 42°
2026-04-29 20:18 49.19078 1.45082 35109 ft 461 kts 41°
2026-04-29 20:18 49.23718 1.51822 35129 ft 459 kts 41°
2026-04-29 20:19 49.28332 1.58547 35132 ft 457 kts 41°
2026-04-29 20:19 49.32934 1.65254 35131 ft 456 kts 42°
2026-04-29 20:20 49.37532 1.71971 35131 ft 456 kts 40°
2026-04-29 20:20 49.42115 1.78686 35149 ft 456 kts 42°
2026-04-29 20:21 49.46694 1.85414 35142 ft 455 kts 41°
2026-04-29 20:21 49.51270 1.92156 35158 ft 455 kts 42°
2026-04-29 20:22 49.55832 1.98892 35157 ft 454 kts 41°
2026-04-29 20:22 49.60387 2.05633 35166 ft 454 kts 43°
2026-04-29 20:23 49.64936 2.12387 35157 ft 453 kts 41°
2026-04-29 20:23 49.69480 2.19146 35162 ft 454 kts 43°
2026-04-29 20:24 49.74018 2.25920 35211 ft 454 kts 44°
2026-04-29 20:24 49.76272 2.29292 35686 ft 446 kts 44°
2026-04-29 20:24 49.78479 2.32599 36185 ft 439 kts 44°
2026-04-29 20:25 49.80665 2.35878 36480 ft 437 kts 44°
2026-04-29 20:25 49.82841 2.39147 36744 ft 436 kts 44°
2026-04-29 20:25 49.85021 2.42425 36846 ft 437 kts 44°
2026-04-29 20:25 49.87201 2.45708 37076 ft 436 kts 44°
2026-04-29 20:26 49.91533 2.52243 37174 ft 435 kts 44°
2026-04-29 20:26 49.95966 2.58694 37180 ft 439 kts 38°
2026-04-29 20:27 50.00247 2.62899 37188 ft 438 kts 31°
2026-04-29 20:27 50.06341 2.68433 37183 ft 436 kts 31°
2026-04-29 20:28 50.11550 2.73223 37175 ft 434 kts 32°
2026-04-29 20:28 50.16735 2.78097 36803 ft 437 kts 32°
2026-04-29 20:29 50.19350 2.80533 36563 ft 440 kts 32°
2026-04-29 20:29 50.21982 2.82985 36326 ft 440 kts 32°
2026-04-29 20:29 50.24605 2.85434 36067 ft 439 kts 32°
2026-04-29 20:29 50.27229 2.87889 35827 ft 441 kts 32°
2026-04-29 20:30 50.29866 2.90365 35587 ft 443 kts 32°
2026-04-29 20:30 50.32511 2.92853 35353 ft 445 kts 32°
2026-04-29 20:30 50.37793 2.97835 35235 ft 442 kts 33°
2026-04-29 20:31 50.43057 3.02813 35233 ft 441 kts 33°
2026-04-29 20:31 50.48314 3.07799 35239 ft 442 kts 33°
2026-04-29 20:32 50.53611 3.12838 35248 ft 448 kts 33°
2026-04-29 20:32 50.58956 3.17933 35239 ft 450 kts 33°
2026-04-29 20:33 50.64309 3.23050 35238 ft 450 kts 33°
2026-04-29 20:33 50.69653 3.28171 35255 ft 449 kts 33°
2026-04-29 20:34 50.74973 3.33283 35238 ft 447 kts 33°
2026-04-29 20:34 50.80268 3.38385 35250 ft 445 kts 33°
2026-04-29 20:35 50.85538 3.43477 35257 ft 442 kts 34°
2026-04-29 20:35 50.90778 3.48554 35248 ft 441 kts 34°
2026-04-29 20:36 50.96002 3.53630 35258 ft 440 kts 34°
2026-04-29 20:36 51.01213 3.58706 35262 ft 439 kts 34°
2026-04-29 20:37 51.06383 3.63755 35264 ft 439 kts 34°
2026-04-29 20:37 51.11590 3.68854 35272 ft 439 kts 34°
2026-04-29 20:38 51.16804 3.73974 35272 ft 440 kts 34°
2026-04-29 20:38 51.22013 3.79102 35271 ft 440 kts 34°
2026-04-29 20:39 51.27219 3.84241 35278 ft 439 kts 34°
2026-04-29 20:39 51.32402 3.89372 35283 ft 437 kts 34°
2026-04-29 20:40 51.37561 3.94493 35296 ft 436 kts 34°
2026-04-29 20:40 51.42706 3.99614 35304 ft 435 kts 34°
2026-04-29 20:41 51.47842 4.04756 35310 ft 434 kts 36°
2026-04-29 20:41 51.52527 4.10710 35313 ft 432 kts 43°
2026-04-29 20:42 51.57052 4.17044 35316 ft 431 kts 43°
2026-04-29 20:42 51.61584 4.23384 35318 ft 432 kts 43°